Location: Cicognara
(44.9500°N, 10.4667°E)
Time: 21:49:34
(UTC+00:00)

Cosmos 1992 Rocket - Pass Details

Date: 20 June 2021
Orbit: 758 x 766 km, 74.0° (Epoch: 23 July)

Event Time Altitude Azimuth Distance (km) Brightness Sun altitude
Exits shadow 21:37:58 23° 196° (SSW) 1,583 5.2 -17.8°
Maximum altitude 21:41:18 85° 109° (ESE) 772 3.9 -18.0°
Drops below altitude 10° 21:46:33 10° 22° (NNE) 2,309 7.1 -18.4°
Sets 21:48:56 0° 22° (NNE) 3,241 8.0 -18.5°
